When you browse on this site, cookies collect data to enhance your experience and personalize the content and advertising you see.
Visit our Privacy Policy to learn more. By continuing to use the site, you agree to this use of cookies and data.
  • In Czech Republic
  • List of Countries
  • For 7 days
  • Water Temperature
  • Satellite Maps
  • Weather Map
  • Weather Widgets
  • user-avatar
    Login

    Hourly Weather Salzburg

    Today, 24 January, Thursday

    Time Temperature Precipitation Wind Pressure Humidity
    00:00 -13°C° 0.1 mm 1 mps 608 mmHg 90%
    01:00 -14°C° 0.1 mm 1 mps 609 mmHg 89%
    02:00 -14°C° 0 mm 1 mps 609 mmHg 90%
    03:00 -15°C° 0 mm 1 mps 609 mmHg 90%
    04:00 -15°C° 0 mm 1 mps 609 mmHg 91%
    05:00 -15°C° 0.1 mm 0 mps 609 mmHg 92%
    06:00 -14°C° 0.1 mm 0 mps 610 mmHg 92%
    07:00 -14°C° 0.1 mm 0 mps 610 mmHg 93%
    08:00 -13°C° 0.1 mm 0 mps 611 mmHg 93%
    09:00 -12°C° 0.1 mm 0 mps 612 mmHg 93%
    10:00 -11°C° 0.1 mm 0 mps 612 mmHg 92%
    11:00 -10°C° 0.1 mm 1 mps 612 mmHg 92%
    12:00 -9°C° 0.1 mm 1 mps 612 mmHg 92%
    13:00 -9°C° 0.1 mm 1 mps 613 mmHg 92%
    14:00 -9°C° 0.1 mm 1 mps 613 mmHg 92%
    15:00 -9°C° 0.1 mm 1 mps 613 mmHg 93%
    16:00 -10°C° 0.1 mm 1 mps 613 mmHg 94%
    17:00 -11°C° 0.1 mm 1 mps 613 mmHg 95%
    18:00 -12°C° 0.1 mm 1 mps 613 mmHg 96%
    19:00 -13°C° 0.1 mm 1 mps 613 mmHg 97%
    20:00 -13°C° 0.1 mm 1 mps 614 mmHg 96%
    21:00 -14°C° 0.1 mm 1 mps 614 mmHg 96%
    22:00 -14°C° 0.1 mm 1 mps 614 mmHg 96%
    23:00 -14°C° 0.1 mm 1 mps 614 mmHg 96%

    Tomorrow, 25 January, Friday

    Time Temperature Precipitation Wind Pressure Humidity
    00:00 -14°C° 0.1 mm 1 mps 614 mmHg 96%
    01:00 -15°C° 0.1 mm 1 mps 614 mmHg 96%
    02:00 -15°C° 0.1 mm 1 mps 614 mmHg 96%
    03:00 -15°C° 0.1 mm 1 mps 614 mmHg 96%
    04:00 -15°C° 0.1 mm 1 mps 614 mmHg 96%
    05:00 -15°C° 0.1 mm 1 mps 615 mmHg 96%
    06:00 -15°C° 0.1 mm 1 mps 615 mmHg 96%
    07:00 -15°C° 0.1 mm 1 mps 615 mmHg 96%
    08:00 -14°C° 0.2 mm 1 mps 616 mmHg 95%
    09:00 -13°C° 0.2 mm 1 mps 616 mmHg 95%
    10:00 -12°C° 0.2 mm 1 mps 617 mmHg 94%
    11:00 -12°C° 0.1 mm 1 mps 617 mmHg 93%
    12:00 -11°C° 0.1 mm 1 mps 617 mmHg 92%
    13:00 -12°C° 0.1 mm 2 mps 617 mmHg 91%
    14:00 -12°C° 0.1 mm 2 mps 618 mmHg 92%
    15:00 -13°C° 0.1 mm 2 mps 618 mmHg 92%
    16:00 -11°C° 0.1 mm 1 mps 618 mmHg 93%
    17:00 -12°C° 0.1 mm 1 mps 618 mmHg 94%
    18:00 -13°C° 0.1 mm 1 mps 619 mmHg 95%
    19:00 -14°C° 0.1 mm 1 mps 619 mmHg 96%
    20:00 -14°C° 0.1 mm 1 mps 619 mmHg 96%
    21:00 -15°C° 0.1 mm 1 mps 619 mmHg 95%
    22:00 -15°C° 0.1 mm 1 mps 619 mmHg 95%
    23:00 -16°C° 0 mm 1 mps 619 mmHg 94%

    Day after tomorrow, 26 January, Saturday

    Time Temperature Precipitation Wind Pressure Humidity
    00:00 -16°C° 0 mm 1 mps 619 mmHg 93%
    01:00 -17°C° 0 mm 1 mps 619 mmHg 92%
    02:00 -17°C° 0 mm 1 mps 619 mmHg 91%
    03:00 -17°C° 0 mm 1 mps 619 mmHg 89%
    04:00 -17°C° 0 mm 1 mps 619 mmHg 88%
    05:00 -17°C° 0 mm 1 mps 619 mmHg 85%
    06:00 -16°C° 0 mm 1 mps 619 mmHg 82%
    07:00 -16°C° 0 mm 1 mps 619 mmHg 79%
    08:00 -14°C° 0 mm 1 mps 620 mmHg 78%
    09:00 -12°C° 0 mm 1 mps 621 mmHg 77%
    10:00 -9°C° 0 mm 1 mps 622 mmHg 76%
    11:00 -8°C° 0 mm 1 mps 622 mmHg 74%
    12:00 -6°C° 0 mm 1 mps 622 mmHg 71%
    13:00 -3°C° 0 mm 1 mps 622 mmHg 69%
    14:00 -3°C° 0 mm 1 mps 622 mmHg 73%
    15:00 -4°C° 0 mm 1 mps 621 mmHg 77%
    16:00 -5°C° 0 mm 0 mps 620 mmHg 82%
    17:00 -6°C° 0 mm 1 mps 620 mmHg 79%
    18:00 -7°C° 0 mm 1 mps 620 mmHg 77%
    19:00 -9°C° 0 mm 1 mps 619 mmHg 75%
    20:00 -8°C° 0 mm 1 mps 619 mmHg 76%
    21:00 -9°C° 0 mm 2 mps 619 mmHg 77%
    22:00 -9°C° 0 mm 2 mps 619 mmHg 78%
    23:00 -9°C° 0 mm 2 mps 619 mmHg 78%

    27 January, Sunday

    Time Temperature Precipitation Wind Pressure Humidity
    00:00 -9°C° 0 mm 2 mps 618 mmHg 78%
    01:00 -9°C° 0 mm 2 mps 618 mmHg 79%
    02:00 -9°C° 0 mm 2 mps 617 mmHg 79%
    03:00 -9°C° 0 mm 2 mps 617 mmHg 79%
    04:00 -9°C° 0 mm 2 mps 616 mmHg 79%
    05:00 -9°C° 0 mm 2 mps 616 mmHg 79%
    06:00 -10°C° 0 mm 2 mps 615 mmHg 79%
    07:00 -10°C° 0 mm 2 mps 615 mmHg 79%
    08:00 -7°C° 0 mm 1 mps 615 mmHg 80%
    09:00 -6°C° 0 mm 1 mps 615 mmHg 81%
    10:00 -4°C° 0 mm 1 mps 615 mmHg 83%
    11:00 -3°C° 0 mm 1 mps 615 mmHg 86%
    12:00 -2°C° 0 mm 1 mps 614 mmHg 89%
    13:00 -1°C° 0 mm 1 mps 614 mmHg 93%
    14:00 -1°C° 0 mm 1 mps 613 mmHg 91%
    15:00 -1°C° 0 mm 1 mps 613 mmHg 88%
    16:00 -2°C° 0 mm 1 mps 613 mmHg 86%
    17:00 -3°C° 0.1 mm 1 mps 612 mmHg 87%
    18:00 -6°C° 0.1 mm 1 mps 612 mmHg 88%
    19:00 -7°C° 0.1 mm 1 mps 612 mmHg 89%
    20:00 -7°C° 0.4 mm 1 mps 612 mmHg 89%
    21:00 -7°C° 0.4 mm 1 mps 612 mmHg 89%
    22:00 -7°C° 0.4 mm 1 mps 612 mmHg 89%
    23:00 -8°C° 0.3 mm 1 mps 611 mmHg 90%

    28 January, Monday

    Time Temperature Precipitation Wind Pressure Humidity
    00:00 -8°C° 0.3 mm 1 mps 611 mmHg 92%
    01:00 -8°C° 0.3 mm 1 mps 611 mmHg 93%
    02:00 -8°C° 0.4 mm 1 mps 611 mmHg 93%
    03:00 -8°C° 0.4 mm 1 mps 611 mmHg 94%
    04:00 -8°C° 0.4 mm 1 mps 611 mmHg 94%
    05:00 -8°C° 0.3 mm 1 mps 611 mmHg 94%
    06:00 -8°C° 0.3 mm 1 mps 611 mmHg 93%
    07:00 -8°C° 0.3 mm 1 mps 612 mmHg 93%
    08:00 -7°C° 0.1 mm 1 mps 612 mmHg 92%
    09:00 -6°C° 0.1 mm 1 mps 613 mmHg 92%
    10:00 -6°C° 0.1 mm 1 mps 613 mmHg 91%
    11:00 -6°C° 0.2 mm 1 mps 613 mmHg 91%
    12:00 -6°C° 0.2 mm 1 mps 613 mmHg 90%
    13:00 -6°C° 0.2 mm 1 mps 613 mmHg 89%
    14:00 -6°C° 0.4 mm 1 mps 613 mmHg 91%
    15:00 -7°C° 0.4 mm 1 mps 613 mmHg 93%
    16:00 -7°C° 0.4 mm 1 mps 613 mmHg 94%
    17:00 -7°C° 0.4 mm 1 mps 613 mmHg 95%
    18:00 -8°C° 0.4 mm 1 mps 613 mmHg 96%
    19:00 -9°C° 0.4 mm 1 mps 613 mmHg 97%
    20:00 -9°C° 0.4 mm 1 mps 614 mmHg 97%
    21:00 -9°C° 0.4 mm 1 mps 614 mmHg 97%
    22:00 -9°C° 0.4 mm 1 mps 614 mmHg 97%
    23:00 -10°C° 0.3 mm 1 mps 614 mmHg 97%

    29 January, Tuesday

    Time Temperature Precipitation Wind Pressure Humidity
    00:00 -10°C° 0.3 mm 1 mps 614 mmHg 97%
    01:00 -10°C° 0.3 mm 1 mps 614 mmHg 97%
    02:00 -11°C° 0.3 mm 1 mps 614 mmHg 97%
    03:00 -11°C° 0.3 mm 1 mps 613 mmHg 97%
    04:00 -11°C° 0.3 mm 1 mps 613 mmHg 97%
    05:00 -12°C° 0.1 mm 1 mps 613 mmHg 96%
    06:00 -13°C° 0.1 mm 1 mps 613 mmHg 95%
    07:00 -14°C° 0.1 mm 1 mps 612 mmHg 94%
    08:00 -13°C° 0 mm 1 mps 613 mmHg 92%
    09:00 -12°C° 0 mm 1 mps 613 mmHg 90%
    10:00 -11°C° 0 mm 1 mps 614 mmHg 88%
    11:00 -9°C° 0 mm 1 mps 614 mmHg 83%
    12:00 -8°C° 0 mm 1 mps 614 mmHg 78%
    13:00 -7°C° 0 mm 1 mps 614 mmHg 73%
    14:00 -7°C° 0.1 mm 1 mps 614 mmHg 78%
    15:00 -7°C° 0.1 mm 1 mps 614 mmHg 83%
    16:00 -8°C° 0.1 mm 1 mps 614 mmHg 89%
    17:00 -9°C° 0 mm 1 mps 614 mmHg 89%
    18:00 -10°C° 0 mm 1 mps 613 mmHg 89%
    19:00 -14°C° 0 mm 2 mps 613 mmHg 89%
    20:00 -11°C° 0.2 mm 1 mps 613 mmHg 89%
    21:00 -11°C° 0.2 mm 1 mps 614 mmHg 89%
    22:00 -11°C° 0.2 mm 1 mps 614 mmHg 89%
    23:00 -11°C° 0.2 mm 1 mps 614 mmHg 89%
    Show more